This is the latest recevied weather packets stored in our database for station/object F4GQK-13. If no packets are shown the sender has not sent any weather packets the latest 10 day(s).
| Time | Temp. | Humidity | Pressure | Rain* | Wind** | Luminosity | Snow |
|---|---|---|---|---|---|---|---|
| 1776886806 | 11.67° C | 59% | 1023.2 hPa | 0 mm | - | 0 W/m² | - |
| 1776886505 | 12.22° C | 58% | 1023.1 hPa | 0 mm | - | 0 W/m² | - |
| 1776886206 | 12.78° C | 56% | 1023 hPa | 0 mm | - | 0 W/m² | - |
| 1776885905 | 12.78° C | 55% | 1023.1 hPa | 0 mm | - | 0 W/m² | - |
| 1776885603 | 12.78° C | 55% | 1023 hPa | 0 mm | - | 0 W/m² | - |
| 1776885306 | 13.33° C | 54% | 1023 hPa | 0 mm | - | 0 W/m² | - |
| 1776885005 | 13.33° C | 54% | 1022.7 hPa | 0 mm | - | 0 W/m² | - |
| 1776884705 | 13.89° C | 52% | 1022.7 hPa | 0 mm | - | 0 W/m² | - |
| 1776884406 | 13.89° C | 51% | 1022.7 hPa | 0 mm | - | 1 W/m² | - |
| 1776884106 | 13.89° C | 51% | 1022.6 hPa | 0 mm | - | 2 W/m² | - |
| 1776883806 | 14.44° C | 50% | 1022.8 hPa | 0 mm | - | 3 W/m² | - |
| 1776883504 | 14.44° C | 49% | 1022.5 hPa | 0 mm | - | 5 W/m² | - |
| 1776883205 | 15° C | 48% | 1022.4 hPa | 0 mm | - | 7 W/m² | - |
| 1776882906 | 15° C | 48% | 1022.4 hPa | 0 mm | - | 9 W/m² | - |
| 1776882605 | 15° C | 47% | 1022.3 hPa | 0 mm | - | 11 W/m² | - |
| 1776882307 | 15.56° C | 46% | 1022.3 hPa | 0 mm | - | 14 W/m² | - |
| 1776882005 | 15.56° C | 46% | 1022.2 hPa | 0 mm | - | 17 W/m² | - |
| 1776881706 | 15.56° C | 46% | 1022.2 hPa | 0 mm | - | 22 W/m² | - |
| 1776881404 | 15.56° C | 46% | 1022.2 hPa | 0 mm | - | 24 W/m² | - |
| 1776881105 | 15.56° C | 46% | 1022 hPa | 0 mm | - | 39 W/m² | - |
| 1776880805 | 15.56° C | 47% | 1021.9 hPa | 0 mm | - | 45 W/m² | - |
| 1776880505 | 16.11° C | 47% | 1022 hPa | 0 mm | - | 43 W/m² | - |
| 1776880206 | 16.11° C | 46% | 1022 hPa | 0 mm | - | 64 W/m² | - |
| 1776879905 | 16.11° C | 46% | 1021.9 hPa | 0 mm | - | 68 W/m² | - |
| 1776879605 | 16.11° C | 45% | 1021.8 hPa | 0 mm | - | 57 W/m² | - |
* Rain latest hour (hover to see other rain measurements)
** Current wind speed in m/s (hover to see current wind gust speed)